McComb, MS

3:50 AM CDT on April 27, 2017 (GMT -0500)
McComb-Pike County-Lewis

Weather History for KMCB - December, 2012

Change the Weather History Date:

Monday, December 17, 2012

  Actual Average Record
Temperature  
Mean Temperature 56 °F -  
Max Temperature 66 °F 59 °F 80 °F (2016)
Min Temperature 46 °F 35 °F 22 °F (1963)
Degree Days  
Heating Degree Days 9    
Growing Degree Days 6 (Base 50)    
Moisture  
Dew Point 57 °F    
Average Humidity 91    
Maximum Humidity 100    
Minimum Humidity 57    
Precipitation  
Precipitation 0.49 in - - ()
Sea Level Pressure  
Sea Level Pressure 29.82 in    
Wind  
Wind Speed 4 mph (SW)    
Max Wind Speed 10 mph    
Max Gust Speed -    
Visibility 7 miles    
Events Fog , Rain , Thunderstorm    
Averages and records for this station are not official NWS values.
T = Trace of Precipitation, MM = Missing Value Source: NWS Daily Summary

Daily Weather History Graph

Daily Weather History Graph

Search for Another Location

Airport or City:

Trip Planner

Search our weather history database for the weather conditions in past years. The results will help you decide how hot, cold, wet, or windy it might be!

Date:

Astronomy

Dec. 17, 2012 Rise Set
Actual Time 6:54 AM CST 5:02 PM CST
Civil Twilight 6:27 AM CST 5:28 PM CST
Nautical Twilight 5:57 AM CST 5:59 PM CST
Astronomical Twilight 5:27 AM CST 6:28 PM CST
Moon 10:18 AM CST (12/17) 10:06 PM CST (12/17)
Length of Visible Light 11h 01m
Length of Day
10h 07m
Waxing Crescent, 25% of the Moon is Illuminated
Dec 17
Waxing Crescent
Dec 19
First Quarter
Dec 28
Full
Jan 4
Last Quarter
Jan 11
New

Hourly Weather History & Observations

Time (CST) Temp. Windchill Dew Point Humidity Pressure Visibility Wind Dir Wind Speed Gust Speed Precip Events Conditions
12:12 AM 60.8 °F - 59.0 °F 94% 29.83 in 5.0 mi SSW 3.5 mph - 0.04 in Rain , Thunderstorm Light Rain
12:23 AM 60.8 °F - 59.0 °F 94% 29.82 in 6.0 mi SSE 4.6 mph - 0.06 in Rain , Thunderstorm Rain
12:42 AM 60.8 °F - 59.0 °F 94% 29.84 in 4.0 mi Calm Calm - 0.12 in Rain Rain
12:53 AM 60.1 °F - 59.0 °F 96% 29.83 in 4.0 mi South 5.8 mph - 0.16 in Rain , Thunderstorm Rain
1:32 AM 60.8 °F - 59.0 °F 94% 29.82 in 2.5 mi South 5.8 mph - 0.19 in Rain , Thunderstorm Heavy Rain
1:43 AM 60.8 °F - 59.0 °F 94% 29.82 in 3.0 mi South 6.9 mph - 0.24 in Rain , Thunderstorm Rain
1:53 AM 60.1 °F - 59.0 °F 96% 29.80 in 3.0 mi SSE 10.4 mph - 0.28 in Rain Rain
2:07 AM 60.8 °F - 60.8 °F 100% 29.80 in 6.0 mi SSE 6.9 mph - 0.03 in Rain Rain
2:46 AM 60.8 °F - 60.8 °F 100% 29.82 in 10.0 mi South 5.8 mph - 0.05 in   Overcast
2:53 AM 61.0 °F - 60.1 °F 97% 29.81 in 10.0 mi SSW 3.5 mph - 0.05 in   Overcast
3:53 AM 61.0 °F - 60.1 °F 97% 29.81 in 10.0 mi South 3.5 mph - 0.00 in   Overcast
4:42 AM 60.8 °F - 60.8 °F 100% 29.80 in 10.0 mi Calm Calm - N/A   Mostly Cloudy
4:50 AM 60.8 °F - 60.8 °F 100% 29.81 in 10.0 mi Calm Calm - N/A   Mostly Cloudy
4:53 AM 60.1 °F - 60.1 °F 100% 29.80 in 10.0 mi Calm Calm - N/A   Mostly Cloudy
5:41 AM 60.8 °F - 60.8 °F 100% 29.80 in 10.0 mi Calm Calm - N/A   Overcast
5:53 AM 60.1 °F - 60.1 °F 100% 29.81 in 10.0 mi Calm Calm - N/A   Overcast
6:53 AM 60.1 °F - 60.1 °F 100% 29.81 in 10.0 mi South 4.6 mph - N/A   Overcast
7:53 AM 60.1 °F - 60.1 °F 100% 29.82 in 5.0 mi Calm Calm - N/A   Overcast
8:34 AM 60.8 °F - 60.8 °F 100% 29.82 in 2.0 mi Calm Calm - N/A   Overcast
8:41 AM 60.8 °F - 60.8 °F 100% 29.81 in 1.2 mi Calm Calm - N/A   Overcast
8:53 AM 61.0 °F - 61.0 °F 100% 29.81 in 0.5 mi SSW 3.5 mph - N/A Fog Fog
9:32 AM 62.6 °F - 62.6 °F 100% 29.83 in 1.8 mi Calm Calm - N/A   Overcast
9:43 AM 62.6 °F - 62.6 °F 100% 29.83 in 3.0 mi WSW 5.8 mph - N/A   Overcast
9:53 AM 62.1 °F - 62.1 °F 100% 29.82 in 6.0 mi SW 5.8 mph - N/A   Overcast
10:04 AM 62.6 °F - 62.6 °F 100% 29.83 in 8.0 mi SW 6.9 mph - N/A   Overcast
10:14 AM 62.6 °F - 60.8 °F 94% 29.83 in 8.0 mi SW 3.5 mph - N/A   Overcast
10:53 AM 64.0 °F - 61.0 °F 90% 29.81 in 10.0 mi SW 5.8 mph - N/A   Mostly Cloudy
11:06 AM 64.4 °F - 60.8 °F 88% 29.81 in 10.0 mi WSW 3.5 mph - N/A   Scattered Clouds
11:53 AM 64.9 °F - 59.0 °F 81% 29.79 in 10.0 mi WSW 5.8 mph - N/A   Clear
12:53 PM 66.0 °F - 57.0 °F 73% 29.77 in 10.0 mi WSW 8.1 mph - N/A   Clear
1:53 PM 64.9 °F - 54.0 °F 68% 29.75 in 10.0 mi West 8.1 mph - N/A   Clear
2:53 PM 66.9 °F - 54.0 °F 63% 29.75 in 10.0 mi West 6.9 mph - N/A   Clear
3:53 PM 66.9 °F - 51.1 °F 57% 29.76 in 10.0 mi West 6.9 mph - N/A   Clear
6:53 PM 57.0 °F - 45.0 °F 64% 29.82 in 10.0 mi WNW 4.6 mph - N/A   Clear
7:53 PM 53.1 °F - 44.1 °F 71% 29.84 in 10.0 mi West 3.5 mph - N/A   Clear
8:53 PM 50.0 °F - 43.0 °F 77% 29.86 in 10.0 mi Calm Calm - N/A   Clear
9:53 PM 46.9 °F - 44.1 °F 90% 29.88 in 10.0 mi Calm Calm - N/A   Clear
10:53 PM 46.9 °F - 42.1 °F 83% 29.91 in 10.0 mi WNW 4.6 mph - N/A   Clear
11:53 PM 46.0 °F 44.8 °F 42.1 °F 86% 29.92 in 10.0 mi WNW 3.5 mph - N/A   Clear